| time (UTC) | temp F | wind direction | speed knots | gust knots | rain 1hr in | rain 24hr in | rain mn in | humidity % | barometer mb |
| 20260507203818 | 47 | 52 | 1.7 | 5.2 | 0.00 | 2.48 | 0.50 | 94 | 1016.8 |
| 20260507203319 | 47 | 57 | 1.7 | 5.2 | 0.00 | 2.48 | 0.50 | 94 | 1016.8 |
| 20260507202822 | 46 | 25 | 3.5 | 7.0 | 0.00 | 2.48 | 0.50 | 94 | 1016.8 |
| 20260507202322 | 46 | 51 | 3.5 | 7.0 | 0.00 | 2.48 | 0.50 | 94 | 1016.7 |
| 20260507201825 | 47 | 345 | 2.6 | 7.0 | 0.00 | 2.48 | 0.50 | 94 | 1016.7 |
| 20260507201313 | 47 | 39 | 3.5 | 7.0 | 0.00 | 2.48 | 0.50 | 94 | 1016.7 |
| 20260507200816 | 46 | 53 | 4.3 | 7.0 | 0.00 | 2.48 | 0.50 | 94 | 1016.7 |
| 20260507200336 | 47 | 45 | 2.6 | 7.0 | 0.00 | 2.48 | 0.50 | 95 | 1016.6 |
| 20260507195817 | 46 | 47 | 2.6 | 7.0 | 0.00 | 2.48 | 0.50 | 94 | 1016.6 |
| 20260507195318 | 46 | 27 | 2.6 | 7.0 | 0.00 | 2.48 | 0.50 | 95 | 1016.5 |
| 20260507194819 | 47 | 23 | 3.5 | 7.0 | 0.04 | 2.48 | 0.50 | 95 | 1016.5 |
| 20260507194320 | 47 | 51 | 2.6 | 6.1 | 0.04 | 2.48 | 0.50 | 95 | 1016.5 |
| 20260507193840 | 47 | 53 | 2.6 | 5.2 | 0.04 | 2.48 | 0.50 | 95 | 1016.5 |
| 20260507193319 | 47 | 51 | 2.6 | 5.2 | 0.04 | 2.48 | 0.50 | 95 | 1016.4 |
| 20260507192819 | 47 | 60 | 1.7 | 7.0 | 0.04 | 2.48 | 0.50 | 95 | 1016.3 |
| 20260507192339 | 47 | 47 | 1.7 | 7.0 | 0.04 | 2.48 | 0.50 | 95 | 1016.3 |
| 20260507191840 | 47 | 56 | 2.6 | 4.3 | 0.04 | 2.48 | 0.50 | 95 | 1016.2 |
| 20260507191320 | 47 | 46 | 2.6 | 4.3 | 0.04 | 2.48 | 0.50 | 95 | 1016.2 |
| 20260507190823 | 47 | 23 | 2.6 | 4.3 | 0.04 | 2.48 | 0.50 | 95 | 1016.1 |
| 20260507190325 | 47 | 3 | 0.9 | 4.3 | 0.04 | 2.48 | 0.50 | 95 | 1016.0 |
| 20260507185828 | 47 | 17 | 0.9 | 5.2 | 0.04 | 2.48 | 0.50 | 95 | 1015.9 |
| 20260507185330 | 47 | 29 | 2.6 | 5.2 | 0.04 | 2.48 | 0.50 | 95 | 1015.9 |
| 20260507184831 | 47 | 58 | 2.6 | 5.2 | 0.00 | 2.44 | 0.49 | 94 | 1015.9 |
| 20260507184331 | 47 | 1 | 2.6 | 4.3 | 0.00 | 2.44 | 0.49 | 95 | 1015.8 |
| 20260507183832 | 47 | 51 | 2.6 | 7.0 | 0.00 | 2.44 | 0.49 | 95 | 1015.7 |
| 20260507183314 | 47 | 32 | 3.5 | 7.0 | 0.00 | 2.44 | 0.49 | 95 | 1015.7 |
| 20260507182814 | 47 | 19 | 2.6 | 7.0 | 0.04 | 2.44 | 0.49 | 95 | 1015.6 |
| 20260507182316 | 47 | 67 | 2.6 | 7.0 | 0.04 | 2.44 | 0.49 | 95 | 1015.6 |
| 20260507181817 | 47 | 29 | 2.6 | 7.0 | 0.04 | 2.44 | 0.49 | 95 | 1015.5 |
| 20260507180828 | 47 | 56 | 3.5 | 6.1 | 0.08 | 2.44 | 0.49 | 95 | 1015.4 |
| 20260507180329 | 47 | 49 | 2.6 | 6.1 | 0.08 | 2.44 | 0.49 | 95 | 1015.4 |
| 20260507175850 | 47 | 336 | 2.6 | 6.1 | 0.08 | 2.44 | 0.49 | 95 | 1015.5 |
| 20260507175332 | 47 | 56 | 1.7 | 8.7 | 0.12 | 2.44 | 0.49 | 95 | 1015.4 |
| 20260507174834 | 47 | 51 | 4.3 | 8.7 | 0.12 | 2.44 | 0.49 | 95 | 1015.3 |
| 20260507174339 | 47 | 18 | 2.6 | 8.7 | 0.16 | 2.44 | 0.49 | 95 | 1015.3 |
| 20260507173819 | 47 | 33 | 3.5 | 7.8 | 0.20 | 2.44 | 0.49 | 95 | 1015.2 |
| 20260507173320 | 47 | 9 | 2.6 | 7.8 | 0.28 | 2.44 | 0.49 | 95 | 1015.1 |
| 20260507172841 | 47 | 359 | 2.6 | 9.6 | 0.28 | 2.40 | 0.48 | 95 | 1015.0 |
| 20260507172321 | 47 | 76 | 4.3 | 10.4 | 0.31 | 2.40 | 0.48 | 94 | 1015.0 |
| 20260507171821 | 47 | 8 | 5.2 | 10.4 | 0.35 | 2.40 | 0.48 | 94 | 1015.0 |
| 20260507171322 | 47 | 39 | 4.3 | 8.7 | 0.35 | 2.40 | 0.48 | 95 | 1015.0 |
| 20260507170822 | 47 | 34 | 4.3 | 11.3 | 0.39 | 2.36 | 0.47 | 95 | 1014.9 |
| 20260507170324 | 47 | 333 | 5.2 | 11.3 | 0.43 | 2.36 | 0.47 | 94 | 1014.9 |
| 20260507165825 | 47 | 30 | 3.5 | 7.0 | 0.43 | 2.36 | 0.47 | 95 | 1014.9 |
| 20260507165325 | 47 | 40 | 3.5 | 7.0 | 0.43 | 2.32 | 0.46 | 95 | 1014.9 |
| 20260507164826 | 47 | 44 | 4.3 | 7.0 | 0.43 | 2.32 | 0.46 | 95 | 1014.8 |
| 20260507164328 | 47 | 15 | 4.3 | 7.8 | 0.39 | 2.28 | 0.46 | 94 | 1014.7 |
| 20260507163831 | 47 | 20 | 5.2 | 7.8 | 0.39 | 2.24 | 0.45 | 94 | 1014.8 |
| 20260507163312 | 47 | 2 | 3.5 | 7.0 | 0.31 | 2.17 | 0.43 | 94 | 1014.8 |
| 20260507162833 | 47 | 13 | 2.6 | 8.7 | 0.31 | 2.13 | 0.43 | 94 | 1014.8 |
| 20260507162334 | 47 | 2 | 3.5 | 8.7 | 0.31 | 2.09 | 0.42 | 93 | 1014.7 |
| 20260507161814 | 47 | 47 | 2.6 | 7.0 | 0.28 | 2.05 | 0.41 | 94 | 1014.6 |
| 20260507161315 | 47 | 52 | 3.5 | 9.6 | 0.28 | 2.01 | 0.40 | 93 | 1014.6 |
| 20260507160818 | 47 | 352 | 5.2 | 9.6 | 0.24 | 1.97 | 0.39 | 93 | 1014.7 |
| 20260507160321 | 48 | 331 | 4.3 | 8.7 | 0.20 | 1.93 | 0.39 | 93 | 1014.7 |
| 20260507155824 | 48 | 37 | 3.5 | 8.7 | 0.20 | 1.93 | 0.39 | 93 | 1014.7 |
| 20260507155327 | 48 | 46 | 3.5 | 7.0 | 0.16 | 1.89 | 0.38 | 93 | 1014.6 |
| 20260507154829 | 48 | 344 | 3.5 | 7.0 | 0.16 | 1.89 | 0.38 | 93 | 1014.5 |
| 20260507154349 | 48 | 20 | 2.6 | 7.0 | 0.16 | 1.89 | 0.38 | 93 | 1014.5 |
| 20260507153849 | 48 | 328 | 2.6 | 7.0 | 0.12 | 1.85 | 0.37 | 92 | 1014.5 |
| 20260507153329 | 48 | 27 | 3.5 | 7.0 | 0.12 | 1.85 | 0.37 | 92 | 1014.4 |
| 20260507152831 | 48 | 350 | 2.6 | 9.6 | 0.08 | 1.81 | 0.36 | 92 | 1014.4 |
| 20260507152314 | 48 | 32 | 3.5 | 7.8 | 0.04 | 1.77 | 0.35 | 91 | 1014.4 |
| 20260507151816 | 48 | 56 | 2.6 | 7.0 | 0.04 | 1.77 | 0.35 | 91 | 1014.5 |
| 20260507151319 | 48 | 29 | 1.7 | 6.1 | 0.00 | 1.73 | 0.35 | 91 | 1014.5 |
| 20260507150822 | 48 | 53 | 2.6 | 6.1 | 0.00 | 1.73 | 0.35 | 90 | 1014.5 |
| 20260507150325 | 48 | 42 | 1.7 | 7.8 | 0.00 | 1.73 | 0.35 | 90 | 1014.5 |
| 20260507145830 | 48 | 36 | 3.5 | 9.6 | 0.00 | 1.73 | 0.35 | 89 | 1014.4 |
| 20260507145334 | 49 | 11 | 3.5 | 9.6 | 0.00 | 1.73 | 0.35 | 89 | 1014.4 |
| 20260507144817 | 49 | 18 | 4.3 | 7.8 | 0.00 | 1.73 | 0.35 | 89 | 1014.4 |
| 20260507144321 | 49 | 16 | 4.3 | 7.0 | 0.00 | 1.73 | 0.35 | 88 | 1014.3 |
| 20260507143827 | 49 | 352 | 2.6 | 7.0 | 0.00 | 1.73 | 0.35 | 88 | 1014.4 |
| 20260507143330 | 49 | 19 | 3.5 | 6.1 | 0.00 | 1.73 | 0.35 | 88 | 1014.4 |
| 20260507142814 | 49 | 44 | 2.6 | 8.7 | 0.00 | 1.73 | 0.35 | 88 | 1014.3 |
| 20260507142319 | 49 | 51 | 4.3 | 8.7 | 0.00 | 1.73 | 0.35 | 88 | 1014.3 |
| 20260507141823 | 49 | 43 | 4.3 | 7.0 | 0.00 | 1.73 | 0.35 | 89 | 1014.3 |
| 20260507141325 | 49 | 70 | 2.6 | 5.2 | 0.00 | 1.73 | 0.35 | 88 | 1014.3 |
| 20260507140830 | 49 | 117 | 2.6 | 8.7 | 0.00 | 1.73 | 0.35 | 88 | 1014.2 |
| 20260507140345 | 49 | 23 | 4.3 | 7.0 | 0.00 | 1.73 | 0.35 | 88 | 1014.2 |
| 20260507135827 | 49 | 47 | 2.6 | 7.8 | 0.00 | 1.73 | 0.35 | 89 | 1014.2 |
| 20260507135329 | 49 | 354 | 3.5 | 7.8 | 0.00 | 1.73 | 0.35 | 88 | 1014.1 |
| 20260507134813 | 49 | 50 | 2.6 | 7.8 | 0.00 | 1.73 | 0.35 | 88 | 1014.0 |
| 20260507134344 | 49 | 46 | 1.7 | 7.0 | 0.00 | 1.73 | 0.35 | 88 | 1014.1 |
| 20260507133846 | 49 | 63 | 3.5 | 8.7 | 0.00 | 1.73 | 0.35 | 89 | 1014.0 |
| 20260507133328 | 49 | 51 | 4.3 | 8.7 | 0.00 | 1.73 | 0.35 | 88 | 1013.9 |
| 20260507132831 | 49 | 44 | 3.5 | 8.7 | 0.00 | 1.73 | 0.35 | 89 | 1013.8 |
| 20260507132314 | 49 | 51 | 4.3 | 9.6 | 0.00 | 1.73 | 0.35 | 88 | 1013.8 |
| 20260507131817 | 49 | 48 | 5.2 | 9.6 | 0.00 | 1.73 | 0.35 | 88 | 1013.8 |
| 20260507131320 | 49 | 39 | 3.5 | 7.8 | 0.00 | 1.73 | 0.35 | 88 | 1013.7 |
| 20260507130823 | 49 | 61 | 4.3 | 7.8 | 0.00 | 1.73 | 0.35 | 88 | 1013.7 |
| 20260507130326 | 49 | 73 | 3.5 | 7.0 | 0.00 | 1.73 | 0.35 | 89 | 1013.5 |
| 20260507125827 | 49 | 334 | 3.5 | 7.8 | 0.00 | 1.73 | 0.35 | 89 | 1013.5 |
| 20260507125327 | 49 | 50 | 4.3 | 8.7 | 0.00 | 1.73 | 0.35 | 89 | 1013.4 |
| 20260507124829 | 49 | 39 | 4.3 | 13.9 | 0.00 | 1.73 | 0.35 | 89 | 1013.4 |
| 20260507124349 | 49 | 338 | 5.2 | 13.9 | 0.00 | 1.73 | 0.35 | 89 | 1013.4 |
| 20260507123849 | 49 | 51 | 3.5 | 8.7 | 0.00 | 1.73 | 0.35 | 89 | 1013.3 |
| 20260507123327 | 49 | 59 | 4.3 | 8.7 | 0.00 | 1.73 | 0.35 | 89 | 1013.2 |
| 20260507122829 | 49 | 49 | 3.5 | 9.6 | 0.00 | 1.73 | 0.35 | 89 | 1013.2 |
| 20260507122341 | 49 | 40 | 5.2 | 10.4 | 0.00 | 1.73 | 0.35 | 89 | 1013.2 |
| 20260507121822 | 50 | 348 | 2.6 | 8.7 | 0.00 | 1.73 | 0.35 | 91 | 1013.1 |
| 20260507121324 | 49 | 57 | 2.6 | 8.7 | 0.00 | 1.73 | 0.35 | 90 | 1013.1 |
| 20260507120827 | 49 | 14 | 4.3 | 9.6 | 0.00 | 1.73 | 0.35 | 90 | 1013.1 |
| 20260507120314 | 48 | 59 | 5.2 | 9.6 | 0.00 | 1.73 | 0.35 | 90 | 1013.0 |
| 20260507115836 | 48 | 48 | 5.2 | 8.7 | 0.00 | 1.73 | 0.35 | 91 | 1013.0 |
| 20260507115321 | 48 | 43 | 4.3 | 8.7 | 0.00 | 1.73 | 0.35 | 91 | 1013.0 |
| 20260507114826 | 48 | 56 | 5.2 | 8.7 | 0.00 | 1.73 | 0.35 | 91 | 1013.1 |
| 20260507114313 | 48 | 295 | 3.5 | 8.7 | 0.00 | 1.73 | 0.35 | 91 | 1013.0 |
| 20260507113816 | 48 | 46 | 3.5 | 8.7 | 0.00 | 1.73 | 0.35 | 91 | 1013.0 |
| 20260507113335 | 48 | 349 | 4.3 | 7.8 | 0.00 | 1.73 | 0.35 | 91 | 1012.9 |
| 20260507112815 | 48 | 53 | 3.5 | 7.8 | 0.00 | 1.73 | 0.35 | 92 | 1012.8 |
| 20260507112320 | 48 | 57 | 4.3 | 10.4 | 0.00 | 1.73 | 0.35 | 92 | 1012.8 |
| 20260507111825 | 48 | 45 | 6.1 | 10.4 | 0.00 | 1.73 | 0.35 | 92 | 1012.8 |
| 20260507111314 | 48 | 65 | 4.3 | 9.6 | 0.04 | 1.73 | 0.35 | 93 | 1012.9 |
| 20260507110816 | 48 | 70 | 4.3 | 9.6 | 0.08 | 1.73 | 0.35 | 94 | 1012.8 |
| 20260507110335 | 48 | 27 | 5.2 | 9.6 | 0.12 | 1.73 | 0.35 | 94 | 1012.7 |
| 20260507105817 | 48 | 341 | 4.3 | 9.6 | 0.20 | 1.73 | 0.35 | 94 | 1012.8 |
| 20260507105318 | 48 | 44 | 4.3 | 9.6 | 0.24 | 1.73 | 0.35 | 94 | 1012.7 |
| 20260507104818 | 48 | 43 | 3.5 | 7.8 | 0.28 | 1.73 | 0.35 | 95 | 1012.7 |
| 20260507104339 | 48 | 58 | 4.3 | 7.8 | 0.31 | 1.73 | 0.35 | 95 | 1012.7 |
| 20260507103818 | 48 | 79 | 3.5 | 8.7 | 0.31 | 1.73 | 0.35 | 95 | 1012.6 |
| 20260507103319 | 48 | 319 | 3.5 | 8.7 | 0.35 | 1.73 | 0.35 | 95 | 1012.6 |
| 20260507102824 | 48 | 37 | 5.2 | 9.6 | 0.39 | 1.73 | 0.35 | 95 | 1012.5 |
| 20260507102339 | 48 | 52 | 3.5 | 9.6 | 0.43 | 1.73 | 0.35 | 95 | 1012.5 |
| 20260507101822 | 48 | 16 | 3.5 | 6.1 | 0.47 | 1.73 | 0.35 | 95 | 1012.6 |
| 20260507101324 | 47 | 75 | 3.5 | 7.0 | 0.43 | 1.69 | 0.34 | 95 | 1012.6 |
| 20260507100828 | 47 | 58 | 4.3 | 7.0 | 0.43 | 1.65 | 0.33 | 95 | 1012.5 |
| 20260507100349 | 47 | 53 | 2.6 | 6.1 | 0.43 | 1.61 | 0.32 | 95 | 1012.5 |
| 20260507095829 | 47 | 352 | 2.6 | 6.1 | 0.43 | 1.54 | 0.31 | 95 | 1012.5 |
| 20260507095330 | 47 | 41 | 2.6 | 6.1 | 0.43 | 1.50 | 0.30 | 95 | 1012.4 |
| 20260507094833 | 47 | 33 | 2.6 | 6.1 | 0.47 | 1.46 | 0.29 | 94 | 1012.4 |
| 20260507094315 | 47 | 38 | 3.5 | 7.0 | 0.47 | 1.42 | 0.28 | 95 | 1012.4 |
| 20260507093817 | 47 | 54 | 4.3 | 8.7 | 0.47 | 1.38 | 0.28 | 94 | 1012.3 |
| 20260507093316 | 47 | 40 | 3.5 | 8.7 | 0.47 | 1.34 | 0.27 | 95 | 1012.2 |
| 20260507092817 | 46 | 65 | 2.6 | 8.7 | 0.47 | 1.34 | 0.27 | 94 | 1012.1 |
| 20260507092316 | 46 | 32 | 4.3 | 8.7 | 0.43 | 1.30 | 0.26 | 94 | 1012.1 |
| 20260507091324 | 47 | 63 | 2.6 | 7.8 | 0.43 | 1.26 | 0.25 | 94 | 1012.1 |
| 20260507090826 | 46 | 34 | 2.6 | 7.0 | 0.39 | 1.22 | 0.24 | 94 | 1012.1 |
| 20260507090328 | 47 | 57 | 3.5 | 7.0 | 0.35 | 1.18 | 0.24 | 94 | 1012.0 |
| 20260507085831 | 46 | 353 | 3.5 | 9.6 | 0.28 | 1.10 | 0.22 | 94 | 1011.9 |
| 20260507085332 | 46 | 30 | 5.2 | 9.6 | 0.20 | 1.02 | 0.20 | 94 | 1011.8 |
| 20260507084835 | 46 | 355 | 3.5 | 7.8 | 0.16 | 0.98 | 0.20 | 94 | 1011.8 |
| 20260507084336 | 46 | 27 | 2.6 | 7.8 | 0.12 | 0.94 | 0.19 | 94 | 1011.8 |
| 20260507083817 | 46 | 34 | 3.5 | 7.8 | 0.08 | 0.91 | 0.18 | 94 | 1011.7 |
| 20260507083319 | 46 | 60 | 3.5 | 9.6 | 0.04 | 0.87 | 0.17 | 93 | 1011.6 |
| 20260507082820 | 46 | 18 | 4.3 | 9.6 | 0.04 | 0.87 | 0.17 | 93 | 1011.6 |
| 20260507082321 | 47 | 43 | 4.3 | 8.7 | 0.04 | 0.87 | 0.17 | 94 | 1011.5 |
| 20260507081844 | 47 | 15 | 4.3 | 9.6 | 0.00 | 0.83 | 0.17 | 93 | 1011.4 |
| 20260507081326 | 46 | 43 | 3.5 | 9.6 | 0.00 | 0.83 | 0.17 | 93 | 1011.3 |
| 20260507080830 | 47 | 76 | 4.3 | 7.8 | 0.00 | 0.83 | 0.17 | 93 | 1011.2 |
| 20260507080314 | 47 | 42 | 3.5 | 11.3 | 0.00 | 0.83 | 0.17 | 94 | 1011.2 |
| 20260507075816 | 47 | 6 | 5.2 | 11.3 | 0.00 | 0.83 | 0.17 | 93 | 1011.2 |
| 20260507075320 | 46 | 73 | 5.2 | 9.6 | 0.00 | 0.83 | 0.17 | 93 | 1011.1 |
| 20260507074822 | 46 | 73 | 6.1 | 10.4 | 0.00 | 0.83 | 0.17 | 93 | 1011.1 |
| 20260507074325 | 47 | 58 | 3.5 | 7.8 | 0.00 | 0.83 | 0.17 | 94 | 1011.1 |
| 20260507073845 | 47 | 33 | 3.5 | 7.8 | 0.00 | 0.83 | 0.17 | 94 | 1011.0 |
| 20260507073324 | 46 | 52 | 3.5 | 7.8 | 0.04 | 0.83 | 0.17 | 94 | 1011.0 |
| 20260507072847 | 46 | 47 | 4.3 | 8.7 | 0.04 | 0.83 | 0.17 | 94 | 1011.0 |
| 20260507072323 | 46 | 56 | 4.3 | 8.7 | 0.04 | 0.83 | 0.17 | 94 | 1010.9 |
| 20260507071818 | 46 | 6 | 4.3 | 8.7 | 0.04 | 0.83 | 0.17 | 94 | 1010.8 |
| 20260507071321 | 46 | 48 | 3.5 | 7.8 | 0.04 | 0.83 | 0.17 | 94 | 1010.7 |
| 20260507070820 | 46 | 50 | 4.3 | 8.7 | 0.04 | 0.83 | 0.17 | 94 | 1010.6 |
| 20260507070319 | 46 | 39 | 3.5 | 8.7 | 0.04 | 0.83 | 0.17 | 94 | 1010.6 |
| 20260507065820 | 46 | 60 | 4.3 | 10.4 | 0.04 | 0.83 | 0.17 | 94 | 1010.6 |
| 20260507065318 | 46 | 72 | 5.2 | 10.4 | 0.04 | 0.83 | 0.17 | 95 | 1010.6 |
| 20260507064819 | 46 | 39 | 4.3 | 10.4 | 0.04 | 0.83 | 0.17 | 95 | 1010.6 |
| 20260507064319 | 46 | 14 | 4.3 | 10.4 | 0.04 | 0.83 | 0.17 | 95 | 1010.5 |
| 20260507063822 | 46 | 53 | 3.5 | 8.7 | 0.00 | 0.79 | 0.16 | 95 | 1010.4 |
| 20260507063325 | 46 | 53 | 3.5 | 8.7 | 0.00 | 0.79 | 0.16 | 95 | 1010.4 |
| 20260507062826 | 46 | 39 | 4.3 | 7.0 | 0.00 | 0.79 | 0.16 | 95 | 1010.4 |
| 20260507062328 | 46 | 20 | 4.3 | 7.0 | 0.00 | 0.79 | 0.16 | 95 | 1010.4 |
| 20260507061847 | 46 | 39 | 2.6 | 5.2 | 0.00 | 0.79 | 0.16 | 95 | 1010.3 |
| 20260507061325 | 46 | 51 | 3.5 | 7.0 | 0.00 | 0.79 | 0.16 | 95 | 1010.3 |
| 20260507060847 | 46 | 360 | 2.6 | 6.1 | 0.00 | 0.79 | 0.16 | 95 | 1010.2 |
| 20260507055831 | 46 | 344 | 5.2 | 9.6 | 0.00 | 0.79 | 0.16 | 95 | 1010.1 |
| 20260507055314 | 46 | 11 | 5.2 | 9.6 | 0.00 | 0.79 | 0.16 | 95 | 1010.0 |
| 20260507054815 | 46 | 21 | 3.5 | 8.7 | 0.00 | 0.79 | 0.16 | 95 | 1009.9 |
| 20260507054316 | 46 | 18 | 3.5 | 9.6 | 0.04 | 0.79 | 0.16 | 95 | 1009.9 |
| 20260507053819 | 46 | 24 | 4.3 | 9.6 | 0.04 | 0.79 | 0.16 | 95 | 1009.8 |
| 20260507053322 | 46 | 25 | 2.6 | 7.0 | 0.04 | 0.79 | 0.16 | 95 | 1009.8 |
| 20260507052911 | 46 | 56 | 2.6 | 7.0 | 0.04 | 0.79 | 0.16 | 95 | 1009.8 |
| 20260507052349 | 46 | 345 | 3.5 | 7.0 | 0.04 | 0.79 | 0.16 | 95 | 1009.8 |
| 20260507051830 | 46 | 27 | 2.6 | 7.0 | 0.04 | 0.79 | 0.16 | 95 | 1009.7 |
| 20260507051332 | 46 | 30 | 2.6 | 7.0 | 0.04 | 0.79 | 0.16 | 95 | 1009.7 |
| 20260507050814 | 46 | 43 | 3.5 | 7.0 | 0.08 | 0.79 | 0.16 | 95 | 1009.6 |
| 20260507050338 | 46 | 52 | 3.5 | 6.1 | 0.08 | 0.79 | 0.16 | 95 | 1009.6 |
| 20260507045820 | 46 | 49 | 2.6 | 6.1 | 0.08 | 0.83 | 0.16 | 95 | 1009.5 |
| 20260507045321 | 46 | 356 | 2.6 | 7.8 | 0.08 | 0.83 | 0.16 | 95 | 1009.4 |
| 20260507044841 | 46 | 16 | 2.6 | 7.8 | 0.08 | 0.83 | 0.16 | 95 | 1009.4 |
| 20260507044321 | 46 | 61 | 3.5 | 8.7 | 0.04 | 0.79 | 0.15 | 95 | 1009.2 |
| 20260507043822 | 46 | 44 | 4.3 | 9.6 | 0.08 | 0.79 | 0.15 | 95 | 1009.1 |
| 20260507043324 | 46 | 32 | 3.5 | 9.6 | 0.08 | 0.79 | 0.15 | 95 | 1009.0 |
| 20260507042824 | 46 | 8 | 2.6 | 8.7 | 0.08 | 0.79 | 0.15 | 95 | 1008.9 |
| 20260507042320 | 47 | 53 | 4.3 | 8.7 | 0.12 | 0.79 | 0.15 | 95 | 1008.9 |
| 20260507041820 | 46 | 40 | 2.6 | 8.7 | 0.16 | 0.79 | 0.15 | 95 | 1009.0 |
| 20260507041321 | 47 | 49 | 1.7 | 7.0 | 0.16 | 0.79 | 0.15 | 95 | 1008.9 |
| 20260507040822 | 47 | 120 | 3.5 | 8.7 | 0.16 | 0.75 | 0.14 | 95 | 1008.7 |
| 20260507040322 | 47 | 25 | 3.5 | 10.4 | 0.20 | 0.75 | 0.14 | 95 | 1008.6 |
| 20260507035822 | 46 | 40 | 3.5 | 10.4 | 0.24 | 0.75 | 0.14 | 95 | 1008.6 |
| 20260507035322 | 46 | 38 | 4.3 | 10.4 | 0.24 | 0.75 | 0.14 | 95 | 1008.5 |
| 20260507034823 | 46 | 19 | 5.2 | 10.4 | 0.28 | 0.75 | 0.14 | 95 | 1008.5 |
| 20260507034324 | 47 | 33 | 4.3 | 10.4 | 0.28 | 0.75 | 0.14 | 95 | 1008.5 |
| 20260507033825 | 47 | 52 | 3.5 | 8.7 | 0.24 | 0.71 | 0.13 | 95 | 1008.4 |
| 20260507033327 | 47 | 18 | 2.6 | 8.7 | 0.28 | 0.71 | 0.13 | 95 | 1008.3 |
| 20260507032832 | 47 | 20 | 3.5 | 8.7 | 0.28 | 0.71 | 0.13 | 95 | 1008.4 |
| 20260507032315 | 47 | 45 | 4.3 | 9.6 | 0.28 | 0.67 | 0.13 | 95 | 1008.3 |
| 20260507031837 | 47 | 46 | 6.1 | 9.6 | 0.28 | 0.63 | 0.12 | 95 | 1008.3 |
| 20260507031319 | 47 | 32 | 2.6 | 10.4 | 0.31 | 0.63 | 0.12 | 95 | 1008.3 |
| 20260507030822 | 47 | 39 | 5.2 | 11.3 | 0.31 | 0.59 | 0.11 | 95 | 1008.2 |
| 20260507030324 | 47 | 22 | 4.3 | 10.4 | 0.28 | 0.55 | 0.10 | 95 | 1008.2 |
| 20260507025827 | 48 | 52 | 6.1 | 11.3 | 0.28 | 0.51 | 0.09 | 94 | 1008.2 |
| 20260507025330 | 48 | 32 | 4.3 | 11.3 | 0.28 | 0.51 | 0.09 | 94 | 1008.2 |
| 20260507024831 | 48 | 345 | 4.3 | 7.8 | 0.28 | 0.47 | 0.09 | 95 | 1008.1 |
| 20260507024331 | 48 | 53 | 3.5 | 8.7 | 0.31 | 0.47 | 0.09 | 94 | 1008.0 |
| 20260507023813 | 48 | 44 | 4.3 | 8.7 | 0.28 | 0.43 | 0.08 | 94 | 1008.1 |
| 20260507023315 | 48 | 32 | 5.2 | 10.4 | 0.31 | 0.43 | 0.08 | 94 | 1008.1 |
| 20260507022838 | 48 | 35 | 4.3 | 10.4 | 0.35 | 0.43 | 0.08 | 94 | 1008.0 |
| 20260507022317 | 48 | 31 | 5.2 | 9.6 | 0.31 | 0.39 | 0.07 | 94 | 1008.0 |
| 20260507021817 | 48 | 35 | 5.2 | 8.7 | 0.31 | 0.35 | 0.06 | 94 | 1008.1 |
| 20260507021318 | 48 | 51 | 3.5 | 7.0 | 0.28 | 0.31 | 0.06 | 94 | 1008.2 |
| 20260507020819 | 48 | 54 | 4.3 | 7.0 | 0.24 | 0.28 | 0.05 | 93 | 1008.2 |
| 20260507020321 | 48 | 25 | 2.6 | 7.0 | 0.24 | 0.28 | 0.05 | 93 | 1008.1 |
| 20260507015821 | 48 | 50 | 3.5 | 8.7 | 0.20 | 0.31 | 0.04 | 93 | 1008.2 |
| 20260507015321 | 48 | 33 | 4.3 | 7.8 | 0.20 | 0.31 | 0.04 | 93 | 1008.3 |
| 20260507014826 | 48 | 56 | 5.2 | 7.8 | 0.16 | 0.28 | 0.03 | 93 | 1008.2 |
| 20260507014329 | 48 | 58 | 2.6 | 6.1 | 0.12 | 0.24 | 0.02 | 93 | 1008.2 |
| 20260507013832 | 48 | 47 | 2.6 | 6.1 | 0.12 | 0.24 | 0.02 | 93 | 1008.2 |
| 20260507013315 | 48 | 48 | 3.5 | 7.0 | 0.08 | 0.20 | 0.02 | 92 | 1008.2 |
| 20260507012815 | 48 | 25 | 4.3 | 7.0 | 0.04 | 0.16 | 0.01 | 92 | 1008.2 |
| 20260507012314 | 48 | 51 | 1.7 | 7.0 | 0.04 | 0.16 | 0.01 | 92 | 1008.3 |
| 20260507011835 | 48 | 44 | 2.6 | 7.0 | 0.00 | 0.12 | 0.00 | 92 | 1008.2 |
| 20260507011313 | 48 | 56 | 3.5 | 6.1 | 0.00 | 0.12 | 0.00 | 92 | 1008.2 |
| 20260507010833 | 48 | 16 | 3.5 | 7.0 | 0.00 | 0.12 | 0.00 | 91 | 1008.2 |
| 20260507010334 | 48 | 34 | 3.5 | 7.0 | 0.00 | 0.12 | 0.00 | 91 | 1008.1 |
| 20260507005817 | 48 | 73 | 3.5 | 7.0 | 0.00 | 0.87 | 0.00 | 91 | 1008.0 |
| 20260507005319 | 48 | 49 | 3.5 | 9.6 | 0.00 | 0.87 | 0.00 | 91 | 1008.0 |
| 20260507004821 | 48 | 48 | 4.3 | 9.6 | 0.00 | 0.87 | 0.00 | 91 | 1007.9 |
| 20260507004324 | 48 | 58 | 5.2 | 7.8 | 0.00 | 0.87 | 0.00 | 91 | 1007.8 |
| 20260507003827 | 49 | 32 | 2.6 | 7.0 | 0.00 | 0.87 | 0.00 | 91 | 1007.9 |
| 20260507003329 | 49 | 42 | 3.5 | 7.8 | 0.00 | 0.87 | 0.00 | 91 | 1007.9 |
| 20260507002830 | 49 | 15 | 3.5 | 7.0 | 0.00 | 0.87 | 0.00 | 91 | 1007.8 |
| 20260507002314 | 49 | 141 | 3.5 | 9.6 | 0.00 | 0.87 | 0.00 | 90 | 1007.8 |
| 20260507001818 | 49 | 64 | 4.3 | 9.6 | 0.00 | 0.87 | 0.00 | 90 | 1007.8 |
| 20260507001322 | 49 | 61 | 5.2 | 8.7 | 0.00 | 0.87 | 0.00 | 90 | 1007.8 |
| 20260507000824 | 49 | 28 | 3.5 | 10.4 | 0.00 | 0.87 | 0.00 | 90 | 1007.7 |
| 20260507000345 | 49 | 355 | 4.3 | 10.4 | 0.00 | 0.87 | 0.00 | 90 | 1007.7 |
| 20260506235826 | 49 | 19 | 3.5 | 7.8 | 0.00 | 1.93 | 0.00 | 90 | 1007.6 |
| 20260506235328 | 49 | 333 | 4.3 | 7.8 | 0.00 | 1.93 | 0.00 | 90 | 1007.7 |
| 20260506234830 | 49 | 47 | 2.6 | 7.0 | 0.00 | 1.93 | 0.00 | 90 | 1007.7 |
| 20260506234313 | 49 | 27 | 3.5 | 7.0 | 0.00 | 1.93 | 0.00 | 90 | 1007.5 |
| 20260506233815 | 49 | 71 | 2.6 | 10.4 | 0.00 | 1.93 | 0.00 | 90 | 1007.7 |
| 20260506233317 | 49 | 46 | 4.3 | 10.4 | 0.00 | 1.93 | 0.00 | 90 | 1007.6 |
| 20260506232838 | 49 | 338 | 4.3 | 8.7 | 0.00 | 1.93 | 0.00 | 90 | 1007.7 |
| 20260506232337 | 49 | 56 | 4.3 | 10.4 | 0.00 | 1.93 | 0.00 | 90 | 1007.6 |
| 20260506231816 | 49 | 352 | 4.3 | 11.3 | 0.00 | 1.93 | 0.00 | 90 | 1007.6 |
| 20260506231336 | 49 | 15 | 5.2 | 11.3 | 0.00 | 1.93 | 0.00 | 90 | 1007.5 |
| 20260506230853 | 50 | 57 | 3.5 | 8.7 | 0.00 | 1.93 | 0.00 | 90 | 1007.6 |
| 20260506230351 | 50 | 4 | 4.3 | 8.7 | 0.00 | 1.93 | 0.00 | 90 | 1007.6 |
| 20260506225830 | 50 | 14 | 4.3 | 8.7 | 0.00 | 2.95 | 0.00 | 90 | 1007.5 |
| 20260506224838 | 50 | 38 | 4.3 | 8.7 | 0.00 | 2.95 | 0.00 | 90 | 1007.3 |
| 20260506224318 | 50 | 8 | 3.5 | 8.7 | 0.00 | 2.95 | 0.00 | 90 | 1007.4 |
| 20260506223819 | 50 | 6 | 5.2 | 8.7 | 0.00 | 2.95 | 0.00 | 89 | 1007.4 |
| 20260506223319 | 50 | 49 | 4.3 | 11.3 | 0.00 | 2.95 | 0.00 | 89 | 1007.4 |
| 20260506222820 | 50 | 68 | 4.3 | 11.3 | 0.00 | 2.95 | 0.00 | 89 | 1007.4 |
| 20260506222320 | 50 | 18 | 3.5 | 7.8 | 0.00 | 2.95 | 0.00 | 89 | 1007.5 |
| 20260506221840 | 50 | 54 | 2.6 | 9.6 | 0.00 | 2.95 | 0.00 | 89 | 1007.4 |
| 20260506221318 | 50 | 28 | 4.3 | 9.6 | 0.00 | 2.95 | 0.00 | 89 | 1007.3 |
| 20260506220820 | 51 | 44 | 3.5 | 10.4 | 0.00 | 2.95 | 0.00 | 89 | 1007.1 |
| 20260506220406 | 51 | 20 | 4.3 | 10.4 | 0.00 | 2.95 | 0.00 | 89 | 1007.1 |
| 20260506215822 | 51 | 53 | 3.5 | 11.3 | 0.00 | 3.03 | 0.59 | 89 | 1007.0 |
| 20260506215345 | 51 | 43 | 5.2 | 11.3 | 0.00 | 3.03 | 0.59 | 89 | 1006.9 |
| 20260506214823 | 51 | 35 | 5.2 | 11.3 | 0.00 | 3.03 | 0.59 | 89 | 1006.9 |
| 20260506214328 | 51 | 47 | 3.5 | 8.7 | 0.00 | 3.03 | 0.59 | 89 | 1006.8 |
| 20260506213813 | 51 | 30 | 5.2 | 8.7 | 0.00 | 3.03 | 0.59 | 89 | 1006.9 |
| 20260506213336 | 51 | 51 | 3.5 | 7.8 | 0.00 | 3.03 | 0.59 | 89 | 1006.9 |
| 20260506212819 | 51 | 33 | 2.6 | 12.2 | 0.00 | 3.03 | 0.59 | 89 | 1006.8 |
| 20260506212342 | 51 | 41 | 6.1 | 12.2 | 0.00 | 3.03 | 0.59 | 89 | 1006.9 |
| 20260506211824 | 52 | 36 | 3.5 | 9.6 | 0.00 | 3.03 | 0.59 | 89 | 1006.8 |
| 20260506211324 | 52 | 4 | 4.3 | 9.6 | 0.00 | 3.03 | 0.59 | 89 | 1006.9 |
| 20260506210824 | 52 | 58 | 4.3 | 8.7 | 0.00 | 3.03 | 0.59 | 89 | 1006.7 |
| 20260506210324 | 52 | 39 | 5.2 | 8.7 | 0.00 | 3.03 | 0.59 | 89 | 1006.6 |
| 20260506205825 | 52 | 61 | 2.6 | 8.7 | 0.00 | 3.03 | 0.59 | 89 | 1006.7 |
| 20260506205326 | 52 | 42 | 4.3 | 9.6 | 0.00 | 3.03 | 0.59 | 89 | 1006.7 |
| 20260506204827 | 52 | 28 | 2.6 | 9.6 | 0.00 | 3.03 | 0.59 | 89 | 1006.7 |
| 20260506204328 | 52 | 20 | 4.3 | 8.7 | 0.00 | 3.03 | 0.59 | 89 | 1006.7 |